Regional Weather Roundup
Issued by NWS

Home | Current Version | Previous Version | Graphics & Text | Print | Product List | Glossary On
Versions: 1 2 3 4 5 6 7 8 9 10 11 12 13 14 15 16 17 18 19 20 21 22 23 24 25 26 27 28 29 30 31 32 33 34 35 36 37 38 39 40 41 42 43 44 45 46 47 48 49 50
000
ASUS43 KOAX 182002
RWRNE

WEATHER ROUNDUP FOR NEBRASKA
NATIONAL WEATHER SERVICE OMAHA NE
200 PM CST SAT NOV 18 2017

NOTES: SATELLITE DATA IS BEING USED TO AUGMENT CLOUD COVER ABOVE
       12000 FEET.
       "FAIR" INDICATES FEW OR NO CLOUDS BELOW 12,000 FEET WITH NO
       SIGNIFICANT WEATHER AND/OR OBSTRUCTIONS TO VISIBILITY.


NEZ001>004-019>022-054>056-182100-
NEBRASKA PANHANDLE

CITY           SKY/WX    TMP DP  RH WIND       PRES   REMARKS
SCOTTSBLUFF    SUNNY     44  12  27 NW14G24   30.19F
ALLIANCE       SUNNY     44  14  29 NW23G29   30.15F
CHADRON        SUNNY     44  17  33 NW20G32   30.17F
GORDON         FAIR      43  18  36 NW15G24   30.14S
KIMBALL        SUNNY     40  16  37 NW28G35   30.20S WCI  29
SIDNEY         SUNNY     43  16  33 NW22G29   30.19F
$$

NEZ057>060-069>072-079>082-182100-
SOUTHWEST NEBRASKA

CITY           SKY/WX    TMP DP  RH WIND       PRES   REMARKS
NORTH PLATTE   MOSUNNY   49  20  31 NW29G35   30.15F
IMPERIAL       SUNNY     47  15  27 NW28G35   30.19F
LEXINGTON      MOSUNNY   49  26  40 NW21G30   30.13S
MCCOOK         SUNNY     49  24  37 N26G32    30.17S
OGALLALA       SUNNY     47  17  30 NW25G33   30.17F
$$

NEZ005>010-023>029-035>040-094-182100-
NORTH CENTRAL NEBRASKA

CITY           SKY/WX    TMP DP  RH WIND       PRES   REMARKS
VALENTINE      SUNNY     45  22  40 NW23G30   30.12F
AINSWORTH      PTSUNNY   43  27  53 NW21G26   30.11F
BROKEN BOW     SUNNY     47  27  45 NW21G28   30.11F
O`NEILL        SUNNY     41  28  60 NW22G28   30.10S
ORD            PTSUNNY   47  27  45 NW25G39   30.09S
THEDFORD       MOSUNNY   46  22  38 NW25G32   30.12F
$$

NEZ041-046>049-061>064-073>077-083>087-182100-
SOUTH CENTRAL NEBRASKA

CITY           SKY/WX    TMP DP  RH WIND       PRES   REMARKS
GRAND ISLAND   SUNNY     46  29  51 NW28G33   30.09S
AURORA         MOSUNNY   47  29  50 NW24G33   30.08S
HASTINGS       SUNNY     48  28  46 NW24G37   30.10S
HEBRON         MOSUNNY   52  29  42 NW24G32   30.08R
HOLDREGE       PTSUNNY   49  27  43 NW18G28   30.12S
KEARNEY        MOSUNNY   48  27  44 NW22G28   30.11S
YORK           MOSUNNY   48  32  53 NW28G36   30.06S
$$

NEZ011>018-030>034-042>045-182100-
NORTHEAST NEBRASKA

CITY           SKY/WX    TMP DP  RH WIND       PRES   REMARKS
NORFOLK        SUNNY     42  27  55 NW26G33   30.04R
ALBION         SUNNY     46  29  51 NW26G32   30.07S
BLAIR          SUNNY     46  32  58 NW24G36   29.99R
COLUMBUS       SUNNY     47  28  47 NW28G35   30.05R
FREMONT        SUNNY     47  29  51 NW28G38   30.03R
TEKAMAH        SUNNY     45  28  51 NW28G36   30.01R
WAYNE          SUNNY     41  25  52 NW21G30   30.05R
$$

NEZ050>053-065>068-078-088>093-182100-
SOUTHEAST NEBRASKA

CITY           SKY/WX    TMP DP  RH WIND       PRES   REMARKS
LINCOLN        MOSUNNY   50  29  44 NW30G36   30.04R
OMAHA EPPLEY   MOSUNNY   47  30  51 NW24G38   29.99R
BEATRICE       MOSUNNY   52  32  47 NW31G37   30.04R
FALLS CITY     MOSUNNY   50  31  48 NW23G40   29.99R
NEBRASKA CITY  MOSUNNY   50  33  51 N24G33    29.99S
PLATTSMOUTH    SUNNY     48  33  55 NW25G33   29.99R
$$

NEZ044-045-051>053-067-182100-
OMAHA AREA

CITY           SKY/WX    TMP DP  RH WIND       PRES   REMARKS
OMAHA EPPLEY   MOSUNNY   47  30  51 NW24G38   29.99R
BLAIR          SUNNY     46  32  58 NW24G36   29.99R
FREMONT        SUNNY     47  29  51 NW28G38   30.03R
MILLARD        MOSUNNY   50  33  53 NW18G29   30.01R
OFFUTT AFB     MOSUNNY   48  30  50 NW22G37   30.00R
PLATTSMOUTH    SUNNY     48  33  55 NW25G33   29.99R
WAHOO          FAIR      48  30  49 NW28G36   30.02R
$$




USA.gov is the U.S. government's official web portal to all federal, state and local government web resources and services.